EHI
9 8 6 3 1 0 0 0 0 0 0 0 0 0 0 0 0 1 2 1 0 1 2 2 2 1 0 0 0 0 0 1 1 1 0 0 1 3 4 3 2 1 0
9 7 5 3 1 0 0 0 0 0 0 0 0 0 0 0 0 1 2 1 0 1 1 2 2 1 0 0 0 0 0 0 0 0 0 0 2 4 5 3 1 1 1
8 5 2 1 0 0 0 0 0 0 0 0 0 0 0 0 0 1 1 1 0 1 2 1 1 1 0 0 0 0 0 0 0 0 0 0 1 3 4 2 2 2 2
5 2 1 0 0 0 0 0 0 0 0 0 0 0 0 0 0 0 0 0 0 1 1 1 0 0 0 0 0 0 0 0 0 1 0 0 1 2 2 1 1 2 2
3 2 2 1 0 0 0 0 0 0 0 0 0 0 0 0 0 0 0 0 0 0 0 0 0 0 0 0 0 0 0 0 0 0 0 0 0 1 1 0 0 1 1
3 3 3 3 1 0 0 1 1 0 0 0 0 0 0 0 0 0 0 0 0 0 0 0 0 0 0 0 0 0 0 0 0 0 0 0 1 2 2 1 0 0 0
5 4 4 4 2 0 0 1 1 0 0 1 0 0 0 0 0 0 0 0 0 0 0 0 0 0 0 0 0 0 0 0 0 0 0 0 1 2 3 2 0 0 0
5 4 3 3 2 0 0 0 0 0 0 0 0 0 0 0 0 0 0 0 0 0 0 0 0 0 0 0 0 0 0 0 0 0 0 0 0 1 2 1 0 0 0
4 3 1 1 1 0 0 0 0 0 0 0 0 0 0 0 0 0 0 0 0 0 0 0 0 0 0 0 0 0 0 0 0 0 0 0 0 0 1 0 0 0 0
4 3 1 0 0 0 0 0 0 0 0 0 0 0 0 0 0 0 0 0 0 0 0 0 0 0 0 0 0 0 0 0 0 0 0 0 0 1 1 1 0 0 0
4 3 1 1 0 0 0 0 0 0 0 0 0 0 0 0 0 0 0 0 0 0 0 0 0 0 0 0 0 0 0 0 0 0 0 0 0 1 1 1 0 0 0
3 3 3 2 1 0 0 0 0 0 0 0 0 0 0 0 0 0 0 0 0 0 0 0 0 0 0 0 0 0 0 0 0 0 0 0 0 0 0 0 0 0 0
1 2 3 2 1 0 0 0 0 0 0 0 0 0 0 0 0 0 0 0 0 0 0 0 0 0 0 0 0 0 0 0 0 0 0 1 0 0 0 0 0 0 0
1 1 1 2 1 0 0 0 0 0 0 0 0 0 0 0 0 0 0 0 0 0 0 0 0 0 0 0 0 0 0 0 0 0 0 0 0 0 0 0 0 0 0
1 2 1 1 1 1 0 0 0 0 0 0 0 0 0 0 0 0 0 0 0 0 0 0 0 0 0 0 0 0 0 0 0 0 0 0 0 0 0 0 0 0 0
3 3 2 1 1 2 1 0 0 0 0 0 0 0 0 0 0 0 0 0 0 0 0 0 0 0 0 0 0 0 0 0 0 0 0 0 0 0 0 0 0 0 0
2 2 1 1 2 2 2 2 2 1 1 0 0 0 0 0 0 0 0 0 0 0 0 0 0 0 0 0 0 0 0 0 0 0 0 0 0 0 0 0 0 0 0
2 2 2 2 2 3 3 3 3 2 1 0 0 0 0 0 0 0 0 0 0 0 0 0 0 0 0 0 0 0 0 0 0 0 0 0 0 1 1 0 0 0 0
3 4 5 3 2 3 4 5 4 3 1 0 0 0 0 0 0 0 0 0 0 0 0 0 0 0 0 0 0 0 0 0 0 0 0 0 0 1 2 1 0 0 0
3 4 5 4 4 4 5 6 6 5 3 2 1 0 0 0 0 1 1 1 0 0 0 0 0 0 0 0 0 0 0 0 0 0 0 0 0 1 1 1 0 0 0
2 2 2 2 3 5 6 6 6 6 5 4 3 1 0 0 1 2 2 1 0 0 0 0 0 0 0 0 0 0 0 0 0 0 0 0 0 0 0 0 0 0 0
1 1 1 1 2 4 6 6 4 4 5 5 4 2 1 1 2 2 2 1 0 0 0 0 0 0 0 0 0 0 0 0 0 0 0 0 0 0 0 0 0 0 0
0 1 1 0 1 4 5 4 3 3 4 4 3 2 1 2 2 1 1 0 0 0 0 0 0 0 0 0 0 0 0 0 0 0 0 0 0 0 0 0 0 0 0
1 0 0 0 1 3 4 3 3 2 2 2 2 1 1 1 1 0 0 0 0 0 0 0 0 0 0 0 0 0 0 0 0 0 0 0 0 0 0 0 0 0 0
2 1 1 1 1 2 3 2 2 1 1 1 1 0 0 0 0 0 0 0 0 0 0 0 0 0 0 0 0 0 0 0 0 0 0 0 0 0 0 0 0 0 0
3 2 2 2 1 2 3 2 2 2 1 1 1 0 0 0 0 0 0 0 0 0 0 0 0 0 0 0 0 0 0 0 0 0 0 0 0 0 0 0 0 0 0
Wind_Speed
5 7 8 8 8 8 8 8 8 8 9 9 9 9 9 9 10 10 10 11 10 10 10 10 10 10 10 10 10 9 9 9 9 9 9 9 8 9 8 7 6 5 8
8 8 9 8 8 8 8 8 8 8 9 9 9 9 9 9 10 10 10 10 10 10 10 11 11 11 10 10 9 9 8 8 8 8 8 8 9 9 9 8 8 6 8
8 9 9 8 8 8 8 7 7 8 8 9 9 9 9 9 10 10 10 10 10 10 11 11 11 11 11 10 10 9 8 7 6 6 6 4 6 9 9 9 9 8 8
8 8 8 8 8 8 8 7 7 7 8 8 8 9 9 10 10 10 11 11 11 11 11 11 11 11 11 11 10 9 8 7 7 6 4 5 5 9 9 9 8 8 8
9 9 9 9 9 8 8 8 8 8 8 8 8 9 9 10 10 10 11 11 11 11 11 11 11 11 11 10 9 8 7 6 7 6 5 5 5 8 9 8 8 8 7
9 10 8 9 9 8 9 9 9 9 9 9 9 9 9 10 10 10 11 11 11 11 11 11 11 11 10 10 10 9 8 7 6 4 5 5 5 8 9 8 8 7 7
9 9 9 10 9 9 10 10 11 10 10 10 10 10 10 10 10 10 11 11 11 11 10 10 10 10 10 10 10 9 9 8 5 5 6 5 6 9 9 9 8 8 7
9 9 9 10 10 10 10 10 10 10 11 11 10 10 10 10 10 11 11 11 11 11 10 10 10 10 10 10 9 9 9 8 6 6 6 5 9 10 9 9 9 9 8
8 8 7 8 8 9 10 9 9 9 9 10 9 9 9 9 10 10 11 11 11 10 10 10 9 9 9 8 8 7 8 9 6 5 7 5 9 10 10 9 9 9 9
6 6 6 7 7 7 7 8 8 8 8 8 8 8 8 8 8 9 9 10 10 10 10 9 8 8 7 7 6 6 6 6 5 6 5 7 11 10 10 10 9 9 10
4 4 4 5 5 6 6 7 7 6 6 6 5 6 6 4 4 5 9 9 9 8 8 7 6 6 5 4 4 4 4 3 5 5 5 10 12 12 11 11 10 10 10
3 3 3 4 4 5 4 4 3 3 4 3 3 4 3 3 4 6 7 7 7 6 5 4 3 3 2 1 2 3 2 5 5 5 6 12 12 12 11 12 11 10 10
3 4 4 4 4 3 3 3 1 1 1 1 2 3 3 3 3 4 3 3 3 3 2 2 1 0 1 1 2 3 4 5 4 5 7 12 12 12 12 12 12 11 10
5 3 3 4 3 3 3 2 2 1 1 1 2 3 2 2 2 2 2 2 2 1 1 1 1 2 3 3 4 5 5 4 4 4 6 12 12 13 12 12 12 11 11
5 4 3 3 3 3 3 2 2 2 1 2 1 2 3 2 2 2 2 2 2 1 1 1 2 3 4 5 5 6 5 5 5 5 4 10 12 12 12 12 12 11 11
5 4 3 3 2 3 3 2 2 2 2 2 1 1 3 2 2 2 3 2 1 1 1 2 3 3 3 4 4 4 4 4 4 5 4 6 10 10 11 11 12 12 11
5 5 4 3 2 3 3 2 2 1 2 2 1 1 2 3 2 2 2 2 1 1 2 3 3 3 3 3 4 3 3 3 3 4 4 3 4 7 9 10 11 11 11
4 4 3 3 3 3 2 2 2 2 2 2 1 1 2 3 3 2 2 1 2 2 2 2 2 2 3 3 2 2 2 2 3 2 3 3 3 4 6 8 9 9 10
3 3 3 3 2 3 2 2 2 2 2 1 2 2 2 2 3 3 1 1 2 2 2 2 2 2 2 2 1 1 1 2 2 2 2 3 3 3 3 5 7 7 8
3 3 3 3 2 2 2 2 2 2 2 2 2 2 2 2 3 3 1 2 3 2 2 2 2 2 1 1 1 2 1 1 1 2 2 2 2 3 3 3 3 4 6
2 3 3 2 2 2 2 2 1 1 1 1 1 2 2 2 3 2 1 2 2 2 1 2 2 2 1 1 1 1 1 1 2 1 1 1 2 2 2 2 2 2 3
3 2 3 3 2 2 2 1 1 1 1 2 1 1 1 1 2 2 2 2 2 2 1 1 1 1 1 1 1 1 0 1 1 1 1 1 2 1 1 2 2 3 3
2 2 2 3 3 2 2 1 1 2 1 1 1 1 1 1 1 1 1 2 1 2 1 1 1 1 0 1 1 1 1 0 1 1 0 1 1 1 1 1 2 2 3
2 2 1 2 3 2 3 3 2 1 1 1 1 1 1 1 1 1 1 1 1 1 1 1 1 0 1 1 1 1 0 1 1 0 1 0 1 1 1 1 2 2 3
3 2 1 2 2 2 2 3 2 1 1 1 2 2 1 1 1 1 1 1 1 1 2 1 1 1 1 0 1 1 1 1 1 1 0 1 1 0 1 1 1 2 2
3 2 1 2 2 2 2 2 2 2 2 2 2 2 1 1 1 1 1 1 1 1 1 1 1 1 1 0 1 0 0 0 1 0 1 0 0 1 0 1 1 1 2
Wind_Direction
89 93 81 75 74 71 67 63 65 67 67 66 65 65 64 61 59 57 57 59 60 57 56 55 55 58 61 64 66 67 70 76 80 89 91 90 85 82 79 77 81 75 80
98 97 86 79 75 73 69 66 67 71 70 70 69 68 67 65 63 60 59 61 61 59 59 61 61 61 62 62 64 66 70 77 84 87 91 90 86 83 79 73 71 74 75
100 102 93 81 76 73 70 68 68 75 76 76 74 72 72 71 69 65 62 64 63 63 63 62 64 63 63 62 63 65 66 66 75 80 89 97 87 80 78 73 72 74 75
101 99 92 89 81 75 71 67 71 82 85 84 82 77 76 74 71 69 66 66 66 65 64 64 66 65 64 61 61 60 60 58 59 59 69 72 77 79 75 71 71 72 74
96 96 95 94 85 79 72 68 77 88 91 90 89 84 81 78 74 72 70 68 66 67 67 67 68 66 62 61 60 59 54 49 52 63 68 71 72 78 78 73 71 69 69
101 100 101 98 91 82 74 70 80 87 87 90 93 87 83 80 76 73 72 69 67 68 68 68 68 66 64 62 59 56 50 42 52 64 70 74 75 76 75 71 68 66 64
106 107 108 104 98 91 83 75 77 80 84 92 95 91 87 82 78 75 74 72 70 70 69 69 68 68 66 62 56 51 47 43 59 62 66 68 70 75 74 72 68 66 64
107 112 116 114 108 101 94 84 80 81 83 91 94 91 89 87 84 81 79 77 73 72 73 72 71 72 69 64 57 47 39 38 62 71 70 65 73 75 73 71 68 65 65
114 118 127 132 126 116 108 100 94 93 92 95 99 98 98 95 92 88 85 81 78 77 77 78 76 74 72 68 60 49 39 38 46 55 68 66 74 75 72 70 68 66 65
121 130 136 141 140 135 129 120 115 110 107 109 114 115 112 107 101 97 92 88 85 82 82 81 81 79 75 70 60 47 36 38 55 56 57 69 72 73 71 69 69 70 69
103 105 118 128 132 134 133 130 136 135 134 134 137 142 141 131 121 105 96 96 96 94 92 90 90 89 87 80 65 50 40 61 66 63 56 70 71 70 68 66 69 74 71
106 109 99 94 91 101 104 123 144 146 149 162 150 147 143 118 107 106 111 114 115 114 114 117 121 117 115 106 85 65 60 69 65 68 63 69 69 68 66 64 64 71 72
111 94 102 100 93 92 97 108 109 109 127 140 119 114 105 103 116 118 134 135 138 149 154 132 151 115 104 94 81 80 69 68 65 67 64 69 70 68 67 64 63 70 72
107 97 96 95 94 94 98 99 94 90 98 77 83 92 97 97 104 112 110 128 123 109 75 80 69 61 46 57 70 73 74 76 75 76 69 70 71 68 68 66 63 68 70
123 114 91 89 92 96 94 85 91 81 92 85 72 94 96 97 96 105 96 76 80 85 90 74 64 62 57 47 54 60 66 77 82 82 76 73 71 70 70 70 68 73 72
120 126 117 103 87 91 94 90 85 77 79 70 50 88 103 99 90 96 95 79 79 88 74 74 77 70 70 66 57 60 56 75 90 95 99 82 74 72 70 72 72 72 76
127 119 121 124 112 99 89 85 86 82 76 71 39 33 93 102 101 84 100 97 85 62 68 58 57 69 77 74 65 63 62 50 80 100 108 105 91 79 77 76 75 73 75
107 118 126 122 111 95 90 92 93 86 74 60 43 11 69 88 90 76 79 92 81 61 59 71 56 59 67 67 70 58 69 50 49 62 97 108 110 104 90 86 83 78 77
96 108 125 115 110 116 116 99 78 90 88 71 54 30 31 66 88 86 65 72 71 67 56 59 67 70 78 71 97 86 75 69 51 45 60 87 99 109 113 102 96 89 85
108 110 100 111 108 111 91 82 75 73 79 66 55 47 27 32 69 79 64 69 69 64 50 51 65 62 87 97 75 88 83 104 85 53 53 69 79 96 106 119 120 104 98
117 105 102 113 98 92 93 102 99 84 91 85 64 53 31 22 50 84 78 73 79 82 69 65 71 54 34 46 58 43 24 81 101 95 67 67 77 83 96 107 119 124 112
140 128 134 114 110 98 80 95 120 116 114 106 86 64 56 42 40 62 85 85 87 88 74 61 78 61 358 28 92 86 25 5 356 115 112 98 86 76 71 94 98 103 112
129 117 110 121 118 122 124 91 72 73 77 90 101 91 49 71 67 62 94 101 110 113 124 133 95 93 1 330 20 91 111 201 318 348 128 113 109 78 50 53 80 87 100
140 127 141 134 126 125 123 116 121 122 132 140 135 140 137 101 97 80 104 125 140 128 127 162 135 126 126 310 332 7 37 127 134 301 325 58 119 106 86 70 75 78 88
144 140 156 118 109 116 131 134 153 138 135 124 126 143 150 132 135 132 149 151 162 158 157 161 134 121 125 192 301 332 341 334 257 140 219 302 340 80 127 116 97 88 96
138 136 132 127 119 123 121 139 155 148 146 144 157 160 156 140 154 160 171 166 177 164 159 164 143 135 152 237 282 277 141 349 296 105 154 198 321 298 0 105 102 113 116